Weather observations for the past three days for
Bridgeport, Bridgeport Municipal Airport
Imperial (Metric)
Date Time (cdt) Wind (mph) Vis. (mi.) Weather Sky Cond. Temperature (ºF) Relative Humidity Wind Chill (°F) Heat Index (°F) Pressure Precipitation (in)
Air Dwpt 6 hour altimeter (in) sea level (mb) 1 hr 3 hr 6 hr
Max. Min.
07 16:30 S 5 10.00 Fair CLR 70.9 48.7 46% 30.02 0.0
07 16:10 SE 6 10.00 Fair CLR 71.8 49.3 45% 30.02 0.0
07 15:50 Calm 10.00 Fair CLR 71.1 47.5 43% 30.03 0.0
07 15:30 E 3 10.00 Fair CLR 71.4 48.4 44% 30.03 0.0
07 15:10 Calm 10.00 Fair CLR 70 47.8 45% 30.04 0.0
07 14:50 Calm 10.00 Fair CLR 70.2 47.5 45% 30.05 0.0
07 14:30 Calm 10.00 Fair CLR 69.6 47.1 45% 30.05 0.0
07 14:10 SE 3 10.00 Fair CLR 69.8 48 46% 30.06 0.0
07 13:50 Calm 10.00 Fair CLR 69.3 48 47% 30.07 0.0
07 13:30 Calm 10.00 Fair CLR 68.4 46.9 46% 30.07 0.0
07 13:10 E 3 10.00 Fair CLR 67.5 47.1 48% 30.08 0.0
07 12:50 NE 7 10.00 Fair CLR 67.5 46.4 68 47.5 47% 30.1 0.0
07 12:30 NE 7 10.00 Fair CLR 67.3 46.9 48% 30.11 0.0
07 12:10 E 3 10.00 Fair CLR 66.6 45.7 47% 30.13 0.0
07 11:50 E 5 10.00 Fair CLR 66.2 45.5 47% 30.13 0.0
07 11:30 E 3 10.00 Fair CLR 65.5 45.5 49% 30.14 0.0
07 11:10 N 5 7.00 Fair CLR 63.7 46.8 54% 30.14 0.0
07 10:50 N 5 10.00 Fair CLR 62.6 47.3 58% 30.14 0.0
07 10:30 N 3 10.00 Fair CLR 61.2 49.3 65% 30.15 0.0
07 10:10 Calm 10.00 Fair CLR 60.4 48.6 65% 30.15 0.0
07 09:50 Calm 10.00 Fair CLR 59.4 47.8 66% 30.15 0.0
07 09:30 N 3 10.00 Fair CLR 57 48 72% 30.16 0.0
07 09:10 Calm 10.00 Fair CLR 55.9 48.2 75% 30.17 0.0
07 08:30 Calm 10.00 Fair CLR 54.5 49.5 83% 30.17 0.0
07 08:10 Calm 10.00 Fair CLR 53.6 49.5 86% 30.17 0.0
07 07:50 Calm 10.00 Fair CLR 51.8 51.3 98% 30.16 0.0
07 07:30 Calm 10.00 Fair CLR 49.8 49.8 100% 30.15 0.0
07 07:10 Calm 10.00 Fair CLR 47.8 47.8 100% 30.15 0.0
07 06:50 SW 3 10.00 Fair CLR 47.7 47.7 52.2 47.3 100% 30.14 0.0
07 06:30 Calm 10.00 Fair CLR 48 48 100% 30.14 0.0
07 06:10 Calm 10.00 Fair CLR 48.2 48.2 100% 30.14 0.0
07 05:50 SW 5 10.00 Fair CLR 48 48 100% 47 30.14 0.0
07 05:30 Calm 10.00 Fair CLR 47.5 47.5 100% 30.14 0.0
07 05:10 Calm 10.00 Fair CLR 47.7 47.7 100% 30.13 0.0
07 04:50 Calm 10.00 Fair CLR 47.5 47.5 100% 30.12 0.0
07 04:30 Calm 10.00 Fair CLR 48.4 48.4 100% 30.11 0.0
07 04:10 Calm 10.00 Fair CLR 49.3 49.3 100% 30.11 0.0
07 03:50 Calm 10.00 Fair CLR 51.1 48.4 91% 30.1 0.0
07 03:30 Calm 10.00 Fair CLR 51.1 48.6 91% 30.09 0.0
07 03:10 Calm 10.00 Fair CLR 51.4 48.9 91% 30.1 0.0
07 02:50 Calm 10.00 Fair CLR 52.2 48.6 88% 30.1 0.0
07 02:30 Calm 10.00 Fair CLR 52.2 48.4 87% 30.09 0.0
07 02:10 NE 3 10.00 Fair CLR 52 48.6 88% 30.09 0.0
07 01:50 NE 5 10.00 Fair CLR 51.8 49.1 91% 30.09 0.0
07 01:30 N 3 10.00 Fair CLR 51.8 49.1 91% 30.1 0.0
07 01:10 NE 3 10.00 Fair CLR 51.8 49.3 91% 30.08 0.0
07 00:50 NE 3 10.00 Fair CLR 52 49.1 62.8 52 90% 30.08 0.0
07 00:30 Calm 10.00 Fair CLR 52.3 49.1 89% 30.07 0.0
07 00:10 Calm 10.00 Fair CLR 52.7 48.7 86% 30.07 0.0
06 23:30 Calm 10.00 Fair CLR 53.8 48.6 83% 30.07 0.0
06 23:10 E 5 10.00 Fair CLR 54.1 48.7 82% 30.07 0.0
06 22:50 E 3 10.00 Fair CLR 54.1 49.1 83% 30.07 0.0
06 22:30 E 3 10.00 Fair CLR 54.7 49.1 82% 30.07 0.0
06 22:10 NE 3 10.00 Fair CLR 55.4 49.1 79% 30.06 0.0
06 21:50 NE 3 10.00 Fair CLR 56.3 48.7 76% 30.06 0.0
06 21:30 NE 6 10.00 Fair CLR 57.2 49.1 75% 30.05 0.0
06 21:10 NE 7 10.00 Fair CLR 57.7 49.1 73% 30.05 0.0
06 20:50 NE 7 10.00 Fair CLR 59 49.1 70% 30.04 0.0
06 20:30 NE 9 10.00 Partly Cloudy SCT031 59.5 49.5 69% 30.02 0.0
06 20:10 N 6 10.00 Partly Cloudy SCT031 60.3 50 69% 30.02 0.0
06 19:50 N 7 10.00 Fair CLR 61 50 67% 30 0.0
06 19:30 N 3 10.00 Fair CLR 62.1 50.2 65% 30 0.0
06 19:10 NE 9 10.00 Fair CLR 62.6 49.5 62% 29.99 0.0
06 18:30 N 6 10.00 Fair CLR 63.9 50.2 61% 29.98 0.0
06 18:10 N 8 10.00 Fair CLR 64.4 50.4 61% 29.97 0.0
06 17:50 N 9 10.00 Fair CLR 65.3 50.5 59% 29.96 0.0
06 17:10 N 9 10.00 Mostly Cloudy BKN035 66.4 50.9 58% 29.95 0.0
06 16:50 N 7 10.00 Partly Cloudy SCT035 67.8 51.3 56% 29.95 0.0
06 16:30 N 8 10.00 Partly Cloudy SCT035 67.5 50.9 56% 29.95 0.0
06 16:10 N 7 10.00 Fair CLR 68.5 51.4 55% 29.95 0.0
06 15:50 N 5 10.00 Fair CLR 67.5 50.7 55% 29.96 0.0
06 15:30 N 7 10.00 Fair CLR 66.9 50.9 57% 29.97 0.0
06 15:10 NW 6 10.00 Fair CLR 66 50.4 57% 29.97 0.0
06 14:50 W 6 10.00 Fair CLR 65.5 50 58% 29.98 0.0
06 14:30 NW 5 10.00 Fair CLR 65.5 49.6 57% 29.98 0.0
06 14:10 S 3 10.00 Fair CLR 65.5 50.4 58% 29.97 0.0
06 13:50 NE 5 10.00 Fair CLR 64.2 49.3 59% 29.98 0.0
06 13:30 Calm 10.00 Partly Cloudy SCT029 62.6 48.2 60% 29.98 0.0
06 13:10 NE 3 10.00 Mostly Cloudy BKN029 63 48.6 60% 29.98 0.0
06 12:50 N 6 10.00 Partly Cloudy SCT027 62.6 48.2 62.8 50.2 60% 29.99 0.0
06 12:30 NE 10 10.00 Partly Cloudy SCT026 61.5 48.2 62% 29.99 0.0
06 12:10 NE 8 10.00 Partly Cloudy SCT024 59.5 46.8 63% 30 0.0
06 11:50 N 8 10.00 Fair CLR 58.1 46.4 65% 30 0.0
06 11:30 N 8 10.00 Mostly Cloudy SCT021 BKN027 57.4 46 66% 30 0.0
06 11:10 NE 8 10.00 Overcast OVC021 54.7 45.1 70% 30 0.0
06 10:50 N 10 10.00 Mostly Cloudy BKN021 BKN031 53.8 44.6 71% 29.99 0.0
06 10:30 N 9 10.00 Mostly Cloudy BKN021 BKN031 53.6 45 73% 29.98 0.0
06 10:10 N 7 10.00 Overcast OVC019 52.9 44.6 74% 30.03 0.0
06 09:50 Calm 10.00 Overcast OVC019 52.3 44.2 74% 30.05 0.0
06 09:30 N 6 10.00 Overcast OVC017 52 44.6 76% 30.02 0.0
06 09:10 N 7 10.00 Overcast OVC017 52.2 44.8 76% 30 0.0
06 08:50 N 6 10.00 Overcast OVC015 51.8 45.5 79% 30.01 0.0
06 08:30 N 5 10.00 Overcast OVC013 51.3 45.5 81% 30 0.0
06 08:10 N 8 10.00 Overcast OVC013 51.1 45.9 82% 29.97 0.0
06 07:50 N 7 10.00 Overcast OVC013 50.9 46.2 84% 29.97 0.0
06 07:30 N 7 10.00 Overcast OVC014 50.5 46 85% 29.96 0.0
06 07:10 NE 6 10.00 Overcast OVC012 50.4 46.4 86% 29.95 0.0
06 06:50 N 7 10.00 Overcast OVC012 50.7 45.7 56.5 50.7 83% 29.95 0.0
06 06:30 N 7 10.00 Overcast OVC014 51.1 45.5 81% 29.95 0.0
06 06:10 N 9 10.00 Overcast OVC016 51.1 45.5 81% 29.94 0.0
06 05:50 N 13 G 18 10.00 Overcast OVC016 51.1 45.1 80% 29.93 0.0
06 05:30 N 13 10.00 Overcast BKN018 OVC023 51.8 45.3 79% 29.93 0.0
06 05:10 N 9 10.00 Overcast OVC023 52.7 45.3 76% 29.92 0.0
06 04:50 N 6 10.00 Overcast SCT019 OVC023 52.9 45.1 75% 29.91 0.0
06 04:30 N 7 10.00 Overcast SCT018 OVC025 53.6 45.9 75% 29.9 0.0
06 04:10 N 6 10.00 Overcast OVC025 54 46.4 76% 29.89 0.0
06 03:50 N 8 10.00 Overcast OVC025 54.5 46.6 75% 29.88 0.0
06 03:30 N 7 10.00 Overcast OVC025 55.4 47.1 74% 29.88 0.0
06 03:10 N 7 10.00 Overcast SCT020 OVC029 55.4 47.1 74% 29.88 0.0
06 02:50 N 6 10.00 Overcast SCT018 OVC029 55.9 47.8 74% 29.88 0.0
06 02:30 N 6 10.00 Overcast SCT018 OVC029 56.3 48.4 75% 29.88 0.0
06 02:10 N 5 10.00 Overcast OVC029 56.5 48.7 75% 29.88 0.0
06 01:50 N 5 10.00 Overcast OVC029 56.3 48.7 76% 29.87 0.0
06 01:30 NE 6 10.00 Overcast OVC029 56.3 48.6 75% 29.85 0.0
06 01:10 NE 6 10.00 Overcast OVC029 56.3 48.4 75% 29.85 0.0
06 00:50 NE 7 10.00 Overcast OVC029 56.7 48.7 68 56.7 75% 29.86 0.0
06 00:30 NE 7 10.00 Overcast BKN031 OVC035 56.8 49.1 75% 29.86 0.0
06 00:10 N 8 7.00 Mostly Cloudy BKN035 56.7 49.3 76% 29.86 0.0
05 23:50 N 8 10.00 Mostly Cloudy BKN035 57.2 49.3 75% 29.86 0.0
05 23:30 N 8 10.00 Overcast OVC037 58.1 50.4 76% 29.87 0.0
05 23:10 N 9 10.00 Overcast OVC037 58.5 50.9 76% 29.87 0.0
05 22:50 N 9 10.00 Overcast OVC037 58.5 50.7 76% 29.86 0.0
05 22:30 N 7 10.00 Overcast OVC037 59 50.9 75% 29.86 0.0
05 22:10 N 9 G 16 10.00 Mostly Cloudy BKN037 59.9 51.1 73% 29.85 0.0
05 21:50 N 7 10.00 Partly Cloudy SCT037 60.1 51.8 74% 29.83 0.0
05 21:30 N 7 10.00 Fair CLR 60.6 51.8 73% 29.83 0.0
05 21:10 N 8 10.00 Fair CLR 61.2 51.8 71% 29.82 0.0
05 20:50 N 8 10.00 Fair CLR 62.4 52.2 69% 29.8 0.0
05 20:30 N 8 10.00 Fair CLR 63.5 53.1 69% 29.77 0.0
05 20:10 N 8 G 17 10.00 Fair CLR 64.6 54 69% 29.75 0.0
05 19:50 N 9 10.00 Fair CLR 66 54.9 67% 29.75 0.0
05 19:30 N 6 10.00 Fair CLR 66.6 55 67% 29.74 0.0
05 19:10 N 8 10.00 Fair CLR 67.5 55.2 65% 29.75 0.0
05 18:50 N 8 G 17 10.00 NULL NULL 68.2 55.8 65% 29.74 0.0
05 18:30 N 13 G 17 10.00 Fair CLR 70.5 57.2 63% 29.74 0.0
05 18:10 N 10 10.00 Fair CLR 71.6 57.7 62% 29.73 0.0
05 17:50 N 10 10.00 Fair CLR 72.1 57.2 60% 29.72 0.0
05 17:30 N 12 G 18 10.00 Fair CLR 73 57 57% 29.72 0.0
05 17:10 N 12 G 17 10.00 Fair CLR 74.5 58.3 57% 29.71 0.0
05 16:50 N 12 G 16 10.00 Fair CLR 76.3 59 55% 78 29.71 0.0
05 16:30 N 10 10.00 Fair CLR 79 59.4 51% 80 29.7 0.0
05 16:10 NW 9 10.00 Fair CLR 77.4 60.1 55% 79 29.7 0.0
05 15:50 N 12 10.00 Fair CLR 80.8 60.6 50% 82 29.71 0.0
05 15:30 N 13 10.00 Fair CLR 80.8 61.2 51% 82 29.71 0.0
05 15:10 N 9 G 16 10.00 Fair CLR 82.2 56.1 41% 82 29.7 0.0
05 14:50 NW 9 10.00 Fair CLR 81.1 54.1 39% 81 29.71 0.0
05 14:30 NW 9 10.00 Fair CLR 81.1 53.6 39% 81 29.71 0.0
05 14:10 W 7 10.00 Fair CLR 84.6 60.8 45% 85 29.7 0.0
05 13:50 W 8 10.00 Fair CLR 0 0 0% 29.69 0.0
05 13:30 W 6 10.00 Fair CLR 85.3 61.9 45% 86 29.7 0.0
05 13:10 W 8 10.00 Fair CLR 83.5 61.9 48% 84 29.7 0.0
05 12:50 W 8 10.00 Fair CLR 84.2 63.1 84.2 69.1 49% 85 29.7 0.0
05 12:30 SW 8 10.00 Fair CLR 83.5 62.6 49% 84 29.69 0.0
05 12:10 W 8 10.00 Fair CLR 82.6 65.8 57% 85 29.69 0.0
05 11:50 SW 9 10.00 Fair CLR 80.2 66.4 63% 82 29.69 0.0
05 11:30 SW 10 10.00 Fair CLR 77.7 65.5 66% 80 29.69 0.0
05 11:10 SW 7 10.00 Fair CLR 76.3 65.8 70% 78 29.68 0.0
05 10:50 SW 8 10.00 Fair CLR 75.4 64.9 70% 77 29.68 0.0
05 10:30 SW 10 G 16 10.00 Fair CLR 75.4 64.4 69% 77 29.67 0.0
05 10:10 SW 8 10.00 Fair CLR 75.4 64.6 69% 77 29.67 0.0
05 09:50 SW 8 10.00 Fair CLR 74.7 64.6 71% 29.68 0.0
05 09:30 SW 12 G 21 10.00 Fair CLR 73 63.9 73% 29.67 0.0
05 09:10 SW 15 0.00 NULL NULL 73.4 63.7 72% 29.66 0.0
05 08:50 SW 14 G 20 10.00 Fair CLR 71.6 63.3 75% 29.66 0.0
05 08:30 SW 12 G 20 10.00 Fair CLR 71.1 63.1 76% 29.66 0.0
05 08:10 SW 12 G 18 10.00 Fair CLR 70.9 62.8 76% 29.65 0.0
05 07:50 SW 12 G 21 10.00 Fair CLR 70.3 62.6 77% 29.64 0.0
05 07:30 SW 10 G 17 10.00 Fair CLR 69.8 62.6 78% 29.65 0.0
05 06:50 SW 9 10.00 Fair CLR 69.1 62.1 73.4 68.9 78% 29.63 0.0
05 06:30 SW 9 10.00 Fair CLR 69.3 62.1 78% 29.63 0.0
05 06:10 SW 9 10.00 Fair CLR 69.3 62.1 78% 29.63 0.0
05 05:50 SW 9 G 20 10.00 Fair CLR 69.4 62.1 78% 29.63 0.0
05 05:30 SW 13 G 17 10.00 Fair CLR 69.8 61.9 76% 29.63 0.0
05 05:10 SW 12 G 20 10.00 Fair CLR 70.2 61.9 75% 29.62 0.0
05 04:50 SW 10 G 17 10.00 Fair CLR 70.7 62.1 74% 29.63 0.0
05 04:30 SW 12 G 20 10.00 Fair CLR 71.1 61.9 73% 29.63 0.0
05 04:10 SW 14 G 21 10.00 Fair CLR 71.6 61.9 72% 29.62 0.0
05 03:50 SW 13 G 21 10.00 Fair CLR 72 61.9 71% 29.62 0.0
05 03:30 S 14 G 20 10.00 Fair CLR 72 62.1 71% 29.63 0.0
05 03:10 S 13 G 18 10.00 Fair CLR 72.5 62.1 70% 29.64 0.0
05 02:50 S 15 G 21 10.00 Fair CLR 72.5 62.1 70% 29.64 0.0
05 02:30 S 10 G 16 10.00 Fair CLR 72.5 62.1 70% 29.65 0.0
05 02:10 S 13 G 18 10.00 Fair CLR 72.9 61.9 69% 29.66 0.0
05 01:50 S 14 G 21 10.00 Fair CLR 73 61.9 68% 29.67 0.0
05 01:30 S 13 G 21 10.00 Fair CLR 73.4 61.9 67% 29.68 0.0
05 01:10 S 12 G 20 10.00 Fair CLR 73.4 61.7 67% 29.68 0.0
05 00:50 S 14 G 18 10.00 Fair CLR 73.4 61.7 78.3 73.4 67% 29.68 0.0
05 00:30 S 13 G 21 10.00 Fair CLR 73.8 61.9 67% 29.68 0.0
05 00:10 S 12 G 18 10.00 Fair CLR 74.1 61.9 66% 29.68 0.0
04 23:50 S 12 G 18 10.00 Fair CLR 74.5 61.7 65% 29.68 0.0
04 23:30 S 13 G 20 10.00 Fair CLR 75.2 61.7 63% 77 29.68 0.0
04 23:10 S 13 G 17 10.00 Fair CLR 75.2 61.9 63% 77 29.68 0.0
04 22:50 S 13 G 18 10.00 Fair CLR 75 61.9 64% 77 29.69 0.0
04 22:30 S 8 10.00 Fair CLR 74.3 61.9 65% 29.69 0.0
04 22:10 S 8 10.00 Fair CLR 73.9 61.9 66% 29.68 0.0
04 21:50 S 8 10.00 Fair CLR 73.9 61.9 66% 29.68 0.0
04 21:30 S 7 10.00 Fair CLR 74.1 62.1 66% 29.68 0.0
04 21:10 S 7 10.00 Fair CLR 73.9 62.1 67% 29.68 0.0
04 20:50 SE 5 10.00 Fair CLR 75.2 61.9 63% 77 29.68 0.0
04 20:30 S 8 10.00 Fair CLR 75.4 61.7 63% 77 29.68 0.0
04 20:10 S 6 10.00 Fair CLR 75.9 61.7 61% 78 29.68 0.0
04 19:50 S 12 10.00 Fair CLR 76.6 61.7 60% 78 29.69 0.0
04 19:30 S 13 G 16 10.00 Fair CLR 0 0 0% 29.69 0.0
04 19:10 S 14 G 21 10.00 Fair CLR 78.3 61.7 57% 80 29.7 0.0
04 18:50 S 13 G 17 10.00 Fair CLR 78.8 62.6 82.9 76.8 58% 80 29.69 0.0
04 18:30 S 10 G 17 10.00 Fair CLR 79.3 62.6 57% 81 29.7 0.0
04 18:10 S 10 10.00 Fair CLR 80.2 62.6 55% 82 29.7 0.0
04 17:50 S 13 G 23 10.00 Fair CLR 81 61.9 52% 82 29.7 0.0
04 17:30 S 15 G 22 10.00 Fair CLR 81.7 62.1 51% 83 29.71 0.0
04 17:10 S 17 G 24 10.00 Fair CLR 82.4 61.2 49% 83 29.71 0.0
Date Time (cdt) Wind (mph) Vis. (mi.) Weather Sky Cond. Air Dwpt Max. Min. Relative Humidity Wind Chill (°F) Heat Index (°F) altimeter (in) sea level (mb) 1 hr 3 hr 6 hr
6 hour
Temperature (ºF) Pressure Precipitation (in)